TimeCST,TemperatureF,Dew PointF,Humidity,Sea Level PressureIn,VisibilityMPH,Wind Direction,Wind SpeedMPH,Gust SpeedMPH,PrecipitationIn,Events,Conditions,WindDirDegrees,DateUTC
12:13 AM,40.5,38.7,93,29.32,10.0,SW,5.8,-,N/A,,Clear,220,2013-11-17 06:13:00
12:33 AM,40.8,38.5,91,29.32,10.0,SW,6.9,-,N/A,,Clear,230,2013-11-17 06:33:00
12:53 AM,40.6,38.5,92,29.31,10.0,WSW,8.1,-,N/A,,Clear,250,2013-11-17 06:53:00
1:14 AM,40.6,38.7,93,29.31,10.0,WSW,10.4,-,N/A,,Clear,250,2013-11-17 07:14:00
1:33 AM,40.1,38.5,94,29.31,7.0,WSW,10.4,-,N/A,,Clear,250,2013-11-17 07:33:00
1:53 AM,39.6,38.3,95,29.30,7.0,West,10.4,-,N/A,,Clear,270,2013-11-17 07:53:00
2:14 AM,39.4,38.3,96,29.31,7.0,West,9.2,-,N/A,,Scattered Clouds,260,2013-11-17 08:14:00
2:33 AM,40.1,39.2,97,29.32,5.0,WSW,8.1,-,N/A,,Overcast,250,2013-11-17 08:33:00
2:53 AM,40.6,39.9,97,29.32,5.0,West,10.4,-,N/A,,Overcast,270,2013-11-17 08:53:00
3:13 AM,40.6,40.1,98,29.32,4.0,West,11.5,-,N/A,,Overcast,260,2013-11-17 09:13:00
3:33 AM,40.6,40.5,99,29.32,1.5,West,11.5,-,N/A,,Overcast,270,2013-11-17 09:33:00
3:54 AM,40.5,40.3,99,29.34,1.2,WSW,9.2,-,N/A,,Overcast,250,2013-11-17 09:54:00
4:14 AM,40.6,40.6,100,29.35,1.5,WSW,9.2,-,N/A,,Overcast,250,2013-11-17 10:14:00
4:33 AM,41.0,41.0,100,29.35,2.0,West,9.2,-,N/A,,Overcast,260,2013-11-17 10:33:00
4:53 AM,41.9,41.4,98,29.35,5.0,West,12.7,18.4,N/A,,Overcast,280,2013-11-17 10:53:00
5:13 AM,41.9,41.0,97,29.35,5.0,West,10.4,-,N/A,,Overcast,280,2013-11-17 11:13:00
5:33 AM,41.9,41.0,97,29.36,4.0,West,10.4,-,N/A,,Overcast,270,2013-11-17 11:33:00
5:53 AM,41.5,40.6,97,29.35,5.0,WNW,11.5,-,N/A,,Overcast,290,2013-11-17 11:53:00
6:14 AM,41.5,40.3,95,29.36,7.0,West,11.5,-,N/A,,Overcast,280,2013-11-17 12:14:00
6:33 AM,41.2,39.4,93,29.38,10.0,West,15.0,20.7,N/A,,Overcast,280,2013-11-17 12:33:00
6:53 AM,40.1,37.8,91,29.35,10.0,NW,16.1,21.9,N/A,,Mostly Cloudy,310,2013-11-17 12:53:00
7:13 AM,39.6,37.4,92,29.36,10.0,WNW,15.0,19.6,N/A,,Mostly Cloudy,300,2013-11-17 13:13:00
7:33 AM,39.4,37.2,92,29.38,10.0,WNW,10.4,21.9,N/A,,Scattered Clouds,300,2013-11-17 13:33:00
7:53 AM,39.4,37.4,93,29.37,10.0,WNW,12.7,18.4,N/A,,Scattered Clouds,290,2013-11-17 13:53:00
8:13 AM,39.4,37.8,94,29.39,7.0,WNW,8.1,-,N/A,,Mostly Cloudy,300,2013-11-17 14:13:00
8:33 AM,39.4,37.6,93,29.40,10.0,WNW,8.1,-,N/A,,Overcast,300,2013-11-17 14:33:00
8:53 AM,39.6,37.4,92,29.40,10.0,WNW,12.7,-,N/A,,Overcast,300,2013-11-17 14:53:00
9:13 AM,39.9,37.6,91,29.41,10.0,WNW,12.7,17.3,N/A,,Overcast,300,2013-11-17 15:13:00
9:34 AM,40.1,37.8,91,29.42,10.0,WNW,11.5,-,N/A,,Overcast,300,2013-11-17 15:34:00
9:53 AM,40.3,37.8,91,29.42,10.0,WNW,11.5,-,N/A,,Overcast,300,2013-11-17 15:53:00
10:13 AM,41.0,38.3,90,29.42,10.0,WNW,12.7,19.6,N/A,,Overcast,300,2013-11-17 16:13:00
10:34 AM,41.4,38.3,89,29.43,10.0,WNW,13.8,17.3,N/A,,Overcast,300,2013-11-17 16:34:00
10:53 AM,41.9,38.7,88,29.45,10.0,WNW,11.5,18.4,N/A,,Overcast,300,2013-11-17 16:53:00
11:13 AM,42.1,38.1,86,29.46,10.0,WNW,15.0,20.7,N/A,,Overcast,300,2013-11-17 17:13:00
11:33 AM,41.9,37.6,85,29.46,10.0,WNW,13.8,24.2,N/A,,Overcast,300,2013-11-17 17:33:00
11:53 AM,41.7,37.8,86,29.46,10.0,WNW,12.7,-,N/A,,Overcast,290,2013-11-17 17:53:00
12:13 PM,41.4,37.4,86,29.47,10.0,WNW,18.4,26.5,N/A,,Overcast,300,2013-11-17 18:13:00
12:33 PM,41.4,37.0,85,29.48,10.0,WNW,19.6,24.2,N/A,,Overcast,300,2013-11-17 18:33:00
12:53 PM,41.5,37.0,84,29.49,10.0,WNW,15.0,21.9,N/A,,Overcast,290,2013-11-17 18:53:00
1:13 PM,41.4,36.5,83,29.50,10.0,WNW,19.6,28.8,N/A,,Overcast,300,2013-11-17 19:13:00
1:34 PM,41.9,36.9,82,29.50,10.0,WNW,18.4,27.6,N/A,,Overcast,300,2013-11-17 19:34:00
1:53 PM,42.3,37.2,82,29.51,10.0,WNW,18.4,28.8,N/A,,Overcast,290,2013-11-17 19:53:00
2:13 PM,41.7,36.9,83,29.52,10.0,WNW,17.3,-,N/A,,Scattered Clouds,290,2013-11-17 20:13:00
2:34 PM,43.7,37.6,79,29.53,10.0,WNW,20.7,27.6,N/A,,Mostly Cloudy,290,2013-11-17 20:34:00
2:53 PM,40.6,35.8,83,29.55,10.0,WNW,25.3,31.1,N/A,,Overcast,290,2013-11-17 20:53:00
3:14 PM,39.0,34.7,84,29.57,10.0,WNW,20.7,31.1,N/A,,Mostly Cloudy,300,2013-11-17 21:14:00
3:33 PM,38.8,34.7,85,29.58,10.0,WNW,17.3,31.1,N/A,,Mostly Cloudy,300,2013-11-17 21:33:00
3:53 PM,38.3,34.7,87,29.60,10.0,WNW,16.1,26.5,N/A,,Mostly Cloudy,290,2013-11-17 21:53:00
4:13 PM,38.3,33.8,84,29.61,10.0,WNW,21.9,29.9,N/A,,Overcast,290,2013-11-17 22:13:00
4:33 PM,37.8,33.1,83,29.63,10.0,WNW,25.3,33.4,N/A,,Overcast,300,2013-11-17 22:33:00
4:53 PM,36.9,32.4,84,29.65,10.0,WNW,23.0,32.2,N/A,,Overcast,300,2013-11-17 22:53:00
5:14 PM,36.3,32.0,84,29.67,10.0,West,17.3,26.5,N/A,,Overcast,280,2013-11-17 23:14:00
5:33 PM,35.6,32.0,87,29.68,10.0,WNW,18.4,24.2,N/A,,Overcast,290,2013-11-17 23:33:00
5:53 PM,35.6,31.5,85,29.70,10.0,West,21.9,27.6,N/A,,Overcast,280,2013-11-17 23:53:00
6:13 PM,35.6,30.9,83,29.72,10.0,WNW,24.2,31.1,N/A,,Overcast,290,2013-11-18 00:13:00
6:34 PM,35.4,30.2,81,29.73,10.0,WNW,25.3,35.7,N/A,,Overcast,300,2013-11-18 00:34:00
6:53 PM,34.5,29.8,83,29.74,10.0,WNW,27.6,36.8,N/A,,Overcast,300,2013-11-18 00:53:00
7:13 PM,33.8,29.3,84,29.75,10.0,WNW,23.0,34.5,N/A,,Overcast,300,2013-11-18 01:13:00
7:33 PM,33.4,28.8,83,29.76,10.0,WNW,25.3,40.3,N/A,,Overcast,300,2013-11-18 01:33:00
7:53 PM,33.4,28.4,82,29.77,10.0,WNW,19.6,28.8,N/A,,Overcast,300,2013-11-18 01:53:00
8:13 PM,33.4,28.4,82,29.78,10.0,WNW,19.6,28.8,N/A,,Overcast,290,2013-11-18 02:13:00
8:34 PM,33.4,28.8,83,29.79,10.0,West,16.1,25.3,N/A,,Overcast,280,2013-11-18 02:34:00
8:53 PM,33.4,28.9,84,29.79,10.0,WNW,17.3,24.2,N/A,,Overcast,300,2013-11-18 02:53:00
9:13 PM,32.9,28.6,84,29.80,10.0,WNW,19.6,26.5,N/A,,Overcast,300,2013-11-18 03:13:00
9:34 PM,32.9,28.8,85,29.81,10.0,WNW,15.0,23.0,N/A,,Overcast,290,2013-11-18 03:34:00
9:53 PM,32.9,28.2,83,29.82,10.0,WNW,17.3,24.2,N/A,,Overcast,290,2013-11-18 03:53:00
10:13 PM,32.0,26.8,81,29.83,10.0,NW,18.4,26.5,N/A,,Overcast,310,2013-11-18 04:13:00
10:33 PM,31.6,26.2,80,29.85,10.0,WNW,16.1,23.0,N/A,,Overcast,290,2013-11-18 04:33:00
10:53 PM,32.0,26.6,80,29.85,10.0,WNW,16.1,24.2,N/A,,Overcast,290,2013-11-18 04:53:00
11:14 PM,31.5,25.5,79,29.86,10.0,WNW,18.4,29.9,N/A,,Overcast,290,2013-11-18 05:14:00
11:33 PM,31.6,26.2,80,29.87,10.0,WNW,19.6,24.2,N/A,,Overcast,290,2013-11-18 05:33:00
11:53 PM,31.3,25.3,79,29.87,10.0,WNW,21.9,31.1,N/A,,Overcast,290,2013-11-18 05:53:00